* Astronomy

Members Login
Username 
 
Password 
    Remember Me  
Post Info TOPIC: Asteroid 2012 KE25


L

Posts: 131433
Date:
Asteroid 2012 KE25
Permalink  
 


Orbital elements:
2012 KE25                                                Earth MOID = 0.1808 AU
Epoch 2012 Mar. 14.0 TT = JDT 2456000.5                 MPC
M   0.23519              (2000.0)            P               Q
n   0.44317018     Peri.  176.78014     -0.05847551     -0.97829379
a   1.7038147      Node   276.50740     +0.91138362     +0.02895027
e   0.7682515      Incl.   11.54224     +0.40738252     -0.20519051
P   2.22           H   18.7           G   0.15           U   8

MPEC 2012 - K55



__________________
Page 1 of 1  sorted by
 
Quick Reply

Please log in to post quick replies.



Create your own FREE Forum
Report Abuse
Powered by ActiveBoard